Location: Arcones
(41.1182°N, 3.7238°W)
Time: 07:33:28
(UTC+00:00)

NOAA 6 - Visible Passes

Search period start: 11 March 2026 00:00
Search period end: 21 March 2026 00:00
Orbit: 767 x 781 km, 98.6° (Epoch: 10 March)

Date Brightness Start Highest point End Pass type
(mag) Time Alt. Az. Time Alt. Az. Time Alt. Az.
11 Mar 4.0 18:52:56 10° SSE 18:58:02 69° ENE 19:03:11 10° N visible
11 Mar 7.0 20:35:04 10° WSW 20:37:39 14° W 20:40:16 10° WNW visible
12 Mar 6.0 19:58:34 10° SSW 20:03:01 29° W 20:07:29 10° NW visible
13 Mar 4.6 19:23:28 10° S 19:28:33 62° W 19:33:39 10° NNW visible
14 Mar 4.1 18:49:11 10° SSE 18:54:15 64° ENE 18:59:21 10° N visible
14 Mar 6.9 20:30:53 10° SW 20:33:48 15° W 20:36:45 10° NW visible
15 Mar 5.8 19:54:38 10° SSW 19:59:12 32° W 20:03:46 10° NNW visible
16 Mar 4.4 19:19:37 10° S 19:24:44 67° WSW 19:29:52 10° NNW visible
17 Mar 4.1 18:45:25 10° SSE 18:50:27 59° ENE 18:55:31 10° N visible
17 Mar 6.8 20:26:45 10° SW 20:29:58 17° W 20:33:11 10° NW visible
18 Mar 5.7 19:50:42 10° SSW 19:55:21 34° W 20:00:02 10° NNW visible
19 Mar 4.3 19:15:48 10° S 19:20:55 74° WSW 19:26:04 10° NNW visible
20 Mar 6.7 20:22:39 10° SW 20:26:06 18° W 20:29:34 10° NW visible
